[[{"header":{"parameterUnit":"m.s-1","parameterCategory":1,"la1":30.2991,"la2":30.254,"lo1":-89.0895,"lo2":-89.0444,"dy":0.0017,"dx":0.0017,"nx":28,"ny":28,"refTime":"2024-08-17T21:00:00:Z","depth":0,"parameterNumber":2,"parameterNumberName":"U-component_of_WINDS"},"data":[0,0,0,0,0,0,0,0,0,0,0,0,0,0,0,0,0,0,0,0,0,0,0,0,0,0,0,0,0,0,0,0,0,0,0,0,0,0,0,0,0,0,0,0,0,0,0,0,0,0,0,0,0,0,0,0,0,0,4.4955,4.4956,0,4.501,4.5011,4.5012,4.4904,4.49,4.4897,4.4893,4.4953,4.4958,4.4963,0,0,0,0,0,0,0,0,0,0,0,0,0,4.4757,4.4761,4.4955,4.4956,4.4957,4.501,4.5011,4.5012,4.4904,4.49,4.4896,4.4892,4.4951,4.4957,4.4963,0,0,0,0,0,0,0,0,0,0,0,0,0,4.4831,4.4763,4.4955,4.4909,4.4906,4.501,4.5011,4.5012,4.4905,4.49,4.4895,4.489,4.4949,4.4957,4.4964,4.5116,0,0,4.4986,4.499,0,0,0,0,0,0,0,0,4.4827,4.4838,4.4915,4.4913,4.4909,4.4945,4.4963,4.5047,4.4907,4.4906,4.4893,4.4887,4.4955,4.4961,4.4984,4.5119,4.5122,4.4987,4.4992,4.4995,4.4997,0,0,0,0,0,0,0,4.4822,4.4835,4.4977,4.4917,4.4913,4.4886,4.4891,4.4978,4.496,4.4905,4.4898,4.4905,4.4952,4.4977,4.4984,4.5123,4.4987,4.4993,4.4998,4.5001,4.5381,4.5386,0,0,0,0,0,0,4.4822,4.4832,4.4975,4.4979,4.4854,4.4894,4.4899,4.4939,4.4958,4.4956,4.491,4.49,4.4967,4.4976,4.4986,4.5161,4.4995,4.5002,4.5006,4.5375,4.5382,4.5388,0,0,0,0,0,0,4.4818,4.4836,4.4973,4.4903,4.4918,4.4903,4.4948,4.4943,4.4967,4.4962,4.4958,4.4938,4.4963,4.4975,4.5083,4.5162,4.5005,4.5012,4.5368,4.5377,4.5385,4.5517,0,0,0,0,0,0,4.4813,4.4835,4.4893,4.4905,4.4923,4.507,4.4953,4.4947,4.498,4.4967,4.4988,4.4986,4.496,4.5073,4.5091,4.5169,4.5017,4.5361,4.5372,4.5382,4.5505,4.5529,4.5549,0,0,0,0,0,4.4807,4.493,4.4897,4.4915,4.4995,4.5075,4.5085,4.5051,4.4987,4.5044,4.504,4.4985,4.5151,4.5085,4.5104,4.5186,4.5356,4.5369,4.5381,4.5495,4.5524,4.5548,0,0,0,0,0,0,4.493,4.4931,4.4894,4.5025,4.505,4.5056,4.5128,4.5083,4.5129,4.5115,4.5073,4.5078,4.5193,4.5201,4.5127,4.5332,4.5242,4.526,4.5323,4.535,4.5371,4.5366,4.5023,0,0,0,0,0,4.4973,4.5037,4.5035,4.5151,4.5165,4.5145,4.5178,4.515,4.5175,4.5185,4.5189,4.5216,4.5273,4.5313,4.5366,4.5506,4.5507,4.5572,4.5594,4.5612,4.5626,4.5696,4.5724,4.543,4.543,4.5429,0,0,4.5061,4.507,4.5113,4.5175,4.5192,4.5258,4.5155,4.5231,4.5279,4.5197,4.5297,4.5302,4.5328,4.5452,4.5507,4.5462,4.5708,4.5628,4.5642,4.5647,4.5712,4.574,4.5765,4.5438,4.5437,4.5436,0,0,4.5256,4.527,4.5366,4.5383,4.5408,4.5393,4.5416,4.5428,4.5426,4.5526,4.5464,4.5522,4.5624,4.5644,4.5667,4.5866,4.5815,4.5884,4.5997,4.6066,4.6089,4.6109,4.6176,4.6201,4.5899,4.59,4.59,0,4.5363,4.5461,4.5421,4.55,4.5528,4.5454,4.5549,4.5569,4.5611,4.5631,4.558,4.5702,4.5716,4.584,4.5888,4.5911,4.5934,4.5881,4.6089,4.6109,4.6127,4.619,4.6216,4.5908,4.5907,4.5906,4.5905,0,4.5589,4.5657,4.5732,4.577,4.5807,4.5894,4.5867,4.5909,4.5877,4.5867,4.5967,4.5981,4.6033,4.6061,4.6032,4.6181,4.6151,4.6096,4.6004,4.6164,4.6222,4.6246,4.5919,4.5916,4.5914,4.5912,0,0,4.5864,4.5876,4.5904,4.5919,4.5939,4.5991,4.6074,4.6123,4.6158,4.6189,4.6255,4.6341,4.6288,4.6315,4.6287,4.6348,4.6499,4.6284,4.6284,4.632,4.6659,4.6698,4.6727,4.6466,4.6471,4.6475,4.6655,0,4.6053,4.6193,4.6159,4.6298,4.6358,4.6288,4.6359,4.6379,4.6372,4.6422,4.6415,4.6474,4.6402,4.6417,4.6474,4.6468,4.6566,4.6455,4.6526,4.6529,4.6518,4.6758,4.68,4.697,4.6678,4.6682,4.6685,0,4.6293,4.6329,4.6474,4.6479,4.6503,4.6569,4.6608,4.6658,4.6678,4.6668,4.6696,4.6655,4.6735,4.6645,4.6753,4.6679,4.6706,4.6707,4.6713,4.6716,4.6614,4.6764,4.7024,4.7048,4.6721,4.6718,4.6716,0,4.6474,4.6559,4.6655,4.667,4.6681,4.6727,4.6734,4.6749,4.6779,4.6814,4.6833,4.6878,4.6903,4.6938,4.691,4.6847,4.7021,4.693,4.7013,4.7014,4.7051,4.7049,4.7316,4.7075,4.7075,4.7074,4.7074,0,4.6687,4.6777,4.6735,4.6794,4.6892,4.6851,4.6949,4.6948,4.6961,4.7017,4.6961,4.7016,4.6976,4.7027,4.7006,4.7096,4.7109,4.7102,4.7094,4.7105,4.7105,4.712,4.7106,4.7081,4.7079,4.7078,4.7077,0,4.6905,4.6881,4.698,4.698,4.6982,4.7054,4.7054,4.7108,4.7096,4.7168,4.7182,4.7163,4.7219,4.7195,4.7256,4.7241,4.7356,4.7335,4.7348,4.7341,4.7425,4.7416,4.7708,4.7742,4.7483,4.7486,4.7488,0,4.7041,4.7108,4.7114,4.7146,4.7156,4.7211,4.7239,4.7202,4.7234,4.726,4.731,4.7361,4.7399,4.7493,4.7484,4.7529,4.7506,4.7605,4.7513,4.7519,4.7503,4.7497,4.7502,4.7623,4.7626,4.7629,4.7631,0,4.7283,4.7267,4.7311,4.7349,4.7385,4.7414,4.7439,4.7469,4.7432,4.7471,4.7526,4.7556,4.7615,4.7666,4.7704,4.7711,4.7664,4.766,4.7681,4.7691,4.7694,4.7689,4.7395,4.7653,4.7651,4.7649,4.7648,4.7647,4.7462,4.7516,4.7527,4.7576,4.759,4.7613,4.7662,4.7654,4.7699,4.7742,4.7718,4.7782,4.7797,4.7843,4.7856,4.7905,4.7866,4.7897,4.7905,4.7912,4.7921,4.7689,4.7912,4.7912,4.7911,4.7911,4.791,0,4.7697,4.77,4.7746,4.7779,4.7818,4.7769,4.7793,4.7828,4.7884,4.7901,4.7939,4.8001,4.8048,4.8042,4.8085,4.8125,4.8105,4.8138,4.8133,4.8134,4.7956,4.7931,4.8153,4.8153,4.8153,4.8153,4.8153,4.8153,4.7824,4.7911,4.7896,4.7989,4.7991,4.8051,4.8068,4.8088,4.8101,4.8172,4.821,4.8205,4.8212,4.8255,4.8296,4.8292,4.8309,4.835,4.8338,4.8171,4.8147,4.8124,4.81,4.8355,4.8355,4.8512,4.8513,4.8514]},{"header":{"parameterUnit":"m.s-1","parameterCategory":1,"la1":30.2991,"la2":30.254,"lo1":-89.0895,"lo2":-89.0444,"dy":0.0017,"dx":0.0017,"nx":28,"ny":28,"refTime":"2024-08-17T21:00:00:Z","depth":0,"parameterNumber":3,"parameterNumberName":"V-component_of_WINDS"},"data":[0,0,0,0,0,0,0,0,0,0,0,0,0,0,0,0,0,0,0,0,0,0,0,0,0,0,0,0,0,0,0,0,0,0,0,0,0,0,0,0,0,0,0,0,0,0,0,0,0,0,0,0,0,0,0,0,0,0,2.5288,2.529,0,2.5503,2.5506,2.5508,2.556,2.5559,2.5557,2.5556,2.5775,2.5782,2.5789,0,0,0,0,0,0,0,0,0,0,0,0,0,2.492,2.4926,2.5288,2.5291,2.5293,2.5503,2.5506,2.5509,2.556,2.5558,2.5557,2.5555,2.5773,2.5781,2.579,0,0,0,0,0,0,0,0,0,0,0,0,0,2.5102,2.4928,2.5287,2.5344,2.5351,2.5502,2.5506,2.551,2.5561,2.5558,2.5556,2.5554,2.577,2.578,2.5791,2.59,0,0,2.5824,2.5829,0,0,0,0,0,0,0,0,2.5091,2.5115,2.5333,2.5341,2.5349,2.5503,2.5457,2.5641,2.5561,2.5481,2.5556,2.5553,2.5686,2.5704,2.5749,2.5911,2.592,2.5825,2.5831,2.5836,2.5839,0,0,0,0,0,0,0,2.5079,2.5106,2.5373,2.5336,2.5346,2.5358,2.5382,2.5492,2.5593,2.5488,2.5492,2.5517,2.569,2.5738,2.5754,2.5923,2.5825,2.5834,2.5841,2.5845,2.6184,2.6187,0,0,0,0,0,0,2.5056,2.5095,2.5366,2.538,2.5212,2.5367,2.5393,2.5455,2.5592,2.5611,2.5519,2.5519,2.5721,2.5742,2.5762,2.5899,2.5836,2.5846,2.5852,2.6182,2.6185,2.6188,0,0,0,0,0,0,2.5048,2.508,2.5358,2.5239,2.5275,2.5375,2.5445,2.5461,2.5509,2.5615,2.5633,2.5549,2.572,2.5747,2.5865,2.5907,2.5851,2.5861,2.6179,2.6183,2.6186,2.6172,0,0,0,0,0,0,2.5038,2.5077,2.512,2.5239,2.5281,2.5458,2.5448,2.5467,2.5528,2.553,2.5649,2.5666,2.572,2.5849,2.5876,2.5921,2.5869,2.6176,2.6181,2.6185,2.617,2.6175,2.618,0,0,0,0,0,2.5024,2.5107,2.5122,2.5154,2.5337,2.546,2.5484,2.5545,2.5531,2.5575,2.5642,2.5663,2.5898,2.5861,2.5892,2.594,2.6173,2.6179,2.6185,2.6167,2.6174,2.618,0,0,0,0,0,0,2.499,2.5124,2.5142,2.5266,2.5351,2.5469,2.5526,2.555,2.5641,2.5639,2.571,2.5736,2.585,2.5907,2.5863,2.6052,2.6035,2.6047,2.6011,2.6019,2.6024,2.6008,2.5878,0,0,0,0,0,2.4997,2.5086,2.5198,2.5297,2.5339,2.5425,2.548,2.552,2.5611,2.5647,2.5724,2.5811,2.5905,2.5965,2.6057,2.6178,2.6204,2.6226,2.6231,2.6235,2.6245,2.6312,2.6323,2.6207,2.6207,2.6207,0,0,2.5012,2.5096,2.5148,2.5292,2.5363,2.5453,2.5455,2.555,2.5618,2.5662,2.5778,2.5837,2.5939,2.6059,2.6116,2.611,2.6283,2.6243,2.6245,2.6253,2.6319,2.633,2.634,2.6211,2.621,2.6209,0,0,2.5086,2.5159,2.5249,2.5319,2.5426,2.5483,2.5504,2.5618,2.5659,2.5777,2.5812,2.5893,2.6053,2.6124,2.6181,2.628,2.6302,2.6308,2.6335,2.64,2.641,2.6418,2.6453,2.6465,2.6317,2.6317,2.6317,0,2.5091,2.5229,2.5292,2.5386,2.5447,2.5492,2.5583,2.5648,2.578,2.5821,2.5813,2.6014,2.6086,2.6222,2.6246,2.6291,2.6317,2.6295,2.6403,2.6412,2.6421,2.6455,2.6468,2.6317,2.6317,2.6317,2.6317,0,2.523,2.5324,2.5384,2.551,2.5579,2.567,2.5747,2.5809,2.5842,2.5899,2.6018,2.6105,2.6215,2.6251,2.6284,2.6392,2.6385,2.6389,2.6373,2.6431,2.6464,2.6478,2.6317,2.6317,2.6317,2.6317,0,0,2.5288,2.5447,2.5468,2.5525,2.5646,2.5721,2.5814,2.5922,2.5973,2.6062,2.6142,2.6276,2.628,2.6344,2.6386,2.6443,2.6515,2.644,2.6443,2.645,2.6639,2.6635,2.6649,2.653,2.6533,2.6535,2.663,0,2.5376,2.5546,2.5605,2.5744,2.5832,2.5874,2.5956,2.6038,2.6094,2.6176,2.6237,2.6331,2.633,2.6369,2.6427,2.6494,2.6554,2.6488,2.6604,2.6608,2.6577,2.6667,2.6663,2.6749,2.6644,2.6646,2.6647,0,2.5502,2.5593,2.5741,2.585,2.5889,2.5961,2.6064,2.6143,2.6237,2.6273,2.6345,2.6382,2.6481,2.6458,2.6595,2.6549,2.66,2.664,2.6644,2.6657,2.6631,2.6682,2.6777,2.679,2.6669,2.6667,2.6665,0,2.5529,2.5688,2.5797,2.5845,2.5975,2.6025,2.6081,2.6174,2.6234,2.6324,2.6364,2.6464,2.6519,2.6595,2.6658,2.6636,2.6789,2.6772,2.6821,2.6819,2.6851,2.6848,2.6956,2.6884,2.6884,2.6884,2.6883,0,2.5622,2.571,2.5811,2.5878,2.5978,2.6045,2.6143,2.6202,2.6283,2.6362,2.6404,2.6477,2.6556,2.6639,2.6688,2.6793,2.6818,2.6849,2.6862,2.6846,2.6842,2.688,2.6876,2.6887,2.6886,2.6886,2.6885,0,2.5669,2.574,2.5862,2.5975,2.6005,2.6074,2.6171,2.6237,2.6294,2.6393,2.642,2.651,2.6609,2.668,2.6808,2.6841,2.6954,2.6966,2.6922,2.6928,2.6973,2.6968,2.7109,2.7131,2.7044,2.7045,2.7046,0,2.5723,2.5792,2.5913,2.5969,2.6025,2.6115,2.6177,2.6245,2.6308,2.642,2.6472,2.6575,2.6661,2.6817,2.6894,2.6992,2.7006,2.7049,2.7021,2.7002,2.7006,2.7001,2.7008,2.7052,2.7053,2.7054,2.7054,0,2.5811,2.5843,2.5931,2.6031,2.6104,2.6187,2.627,2.6313,2.6395,2.6463,2.6566,2.6632,2.6763,2.6864,2.6969,2.7027,2.7054,2.7062,2.7079,2.7063,2.7035,2.705,2.6933,2.7059,2.7058,2.7058,2.7058,2.7057,2.5863,2.5926,2.6021,2.6118,2.6187,2.6263,2.6331,2.6396,2.6483,2.6595,2.663,2.6736,2.6827,2.6972,2.703,2.7114,2.7111,2.7135,2.7141,2.7146,2.7145,2.7021,2.7133,2.7133,2.7133,2.7133,2.7133,0,2.5953,2.6016,2.6104,2.6218,2.6294,2.6313,2.6406,2.6468,2.6561,2.6644,2.6727,2.6845,2.6943,2.7026,2.7128,2.7178,2.7193,2.7202,2.7199,2.7212,2.7142,2.7118,2.7189,2.7189,2.7189,2.7189,2.7189,2.7189,2.6008,2.6116,2.6159,2.6301,2.6363,2.6468,2.6519,2.6589,2.6656,2.6785,2.6867,2.6921,2.7004,2.7112,2.7202,2.7224,2.7259,2.7266,2.729,2.7223,2.7217,2.7211,2.7188,2.7273,2.7273,2.7353,2.7354,2.7354]}]]